Home   Weather   Santander   Past weeks

Flag for Spain Past Weather in Santander, Spain — Yesterday and Last 2 Weeks

Now
63 °F

Passing clouds.


Feels Like: 63 °F
Forecast: 47 / 59 °F
Wind: 5 mph from Northwest

Location: Santander / Parayas

Current Time: Feb 25, 2017 at 5:35:50 pm

Latest Report: Feb 25, 2017 at 5:00 pm


Visibility: N/A

Pressure: 30.07 "Hg

Humidity: 56%

Dew Point: 46 °F

Location of SantanderLocation

Past Weather in Santander — Graph

°F

Santander Temperature Yesterday

Maximum temperature yesterday: 55 °F (at 1:30 pm)
Minimum temperature yesterday: 45 °F (at 11:00 pm)
Average temperature yesterday: 50 °F

High & Low Weather Summary for the Past Weeks

 TemperatureHumidityPressure
High64 °F (Feb 13, 1:30 pm)100% (Feb 17, 5:00 am)30.45 "Hg (Feb 17, 5:00 am)
Low37 °F (Feb 25, 7:30 am)39% (Feb 10, 5:00 pm)29.42 "Hg (Feb 13, 4:30 am)
Average51 °F79%30.13 "Hg
* Reported Feb 10 4:00 pm — Feb 25 4:00 pm, Santander, Weather by CustomWeather, © 2017

Note: Actual official high and low records may vary slightly from our data, if they occured in-between our weather recording intervals... More about our weather records

Advertising

Santander Weather History for the Previous 24 Hours

Scroll right to see more
 ConditionsComfort  
Time TempWeatherWind HumidityBarometerVisibility
4:00 pm
Sat, Feb 25
59 °FSunny.1 mph63%30.07 "Hg10 mi
3:30 pm57 °FSunny.2 mph63%30.07 "Hg10 mi
3:00 pm55 °FPassing clouds.3 mph72%30.07 "HgN/A
2:30 pm55 °FPassing clouds.6 mph72%30.09 "HgN/A
2:00 pm57 °FPassing clouds.3 mph67%30.09 "HgN/A
1:30 pm55 °FSunny.3 mph63%30.09 "Hg10 mi
1:00 pm55 °FPassing clouds.5 mph59%30.12 "HgN/A
12:30 pm55 °FPassing clouds.3 mph59%30.12 "HgN/A
12:00 pm55 °FSunny.1 mph55%30.12 "Hg10 mi
11:30 am52 °FSunny.2 mph67%30.12 "Hg10 mi
11:00 am50 °FSunny.No wind71%30.12 "Hg10 mi
10:30 am48 °FSunny.No wind71%30.09 "Hg10 mi
10:00 am45 °FSunny.No wind81%30.09 "Hg10 mi
9:30 am43 °FSunny.No wind87%30.09 "Hg10 mi
9:00 am37 °FSunny.No wind93%30.09 "Hg10 mi
8:30 am37 °FSunny.1 mph87%30.09 "Hg10 mi
8:00 am39 °FSunny.3 mph87%30.09 "Hg10 mi
7:30 am37 °FClear.No wind93%30.09 "Hg10 mi
7:00 am39 °FClear.2 mph87%30.09 "Hg10 mi
6:30 am39 °FClear.1 mph93%30.12 "Hg10 mi
6:00 am39 °FClear.3 mph87%30.12 "Hg10 mi
5:30 am41 °FClear.2 mph87%30.12 "Hg10 mi
5:00 am43 °FQuite cool.2 mph87%30.12 "HgN/A
4:30 am41 °FQuite cool.1 mph87%30.15 "Hg6 mi
4:00 am43 °FQuite cool.5 mph87%30.15 "Hg4 mi
3:30 am41 °FFog.2 mph93%30.15 "Hg3 mi
3:00 am39 °FChilly.No wind87%30.18 "Hg6 mi
2:30 am41 °FQuite cool.1 mph87%30.18 "HgN/A
2:00 am41 °FQuite cool.No wind87%30.21 "HgN/A
1:30 am41 °FQuite cool.1 mph87%30.21 "Hg6 mi
1:00 am43 °FQuite cool.1 mph93%30.24 "Hg4 mi
12:30 am41 °FQuite cool.No wind93%30.21 "Hg5 mi
12:00 am43 °FQuite cool.1 mph87%30.21 "Hg6 mi
11:30 pm
Fri, Feb 24
45 °FPassing clouds.No wind87%30.24 "HgN/A
11:00 pm45 °FPassing clouds.No wind87%30.24 "HgN/A
10:30 pm46 °FPassing clouds.2 mph87%30.24 "HgN/A
10:00 pm48 °FPassing clouds.1 mph82%30.24 "HgN/A
9:30 pm48 °FPassing clouds.No wind82%30.24 "HgN/A
9:00 pm48 °FPassing clouds.1 mph82%30.24 "HgN/A
8:30 pm48 °FPassing clouds.1 mph76%30.24 "HgN/A
8:00 pm48 °FPassing clouds.2 mph76%30.21 "HgN/A
7:30 pm50 °FPassing clouds.3 mph71%30.21 "HgN/A
7:00 pm52 °FPassing clouds.5 mph72%30.21 "HgN/A
6:30 pm52 °FScattered clouds.5 mph72%30.21 "HgN/A
6:00 pm52 °FScattered clouds.3 mph72%30.21 "HgN/A
5:30 pm52 °FScattered clouds.3 mph72%30.18 "HgN/A
5:00 pm54 °FScattered clouds.6 mph67%30.18 "HgN/A
Weather by CustomWeather, © 2017

See weather overviewHow to use our weather pages